Location: Croissy-Beaubourg
(48.8283°N, 2.6696°E)
Time: 22:45:24
(UTC+00:00)

Cosmos 2082 - Pass Details

Date: 16 October 2021
Orbit: 835 x 854 km, 71.0° (Epoch: 07 December)

Event Time Altitude Azimuth Distance (km) Brightness Sun altitude
Rises 18:07:02 0° 330° (NNW) 3,397 7.3 -12.2°
Reaches altitude 10° 18:09:30 10° 329° (NNW) 2,458 6.6 -12.6°
Maximum altitude 18:15:06 75° 246° (WSW) 870 3.9 -13.5°
Drops below altitude 10° 18:20:41 10° 162° (SSE) 2,442 5.9 -14.4°
Sets 18:23:07 0° 160° (SSE) 3,373 6.6 -14.8°
